Year,Month,Day,Hour,Minute,Value (Times are PST for windspeed in km/hr)
2015,08,29,00,00,0.00
2015,08,29,00,01,0.00
2015,08,29,00,02,0.00
2015,08,29,00,03,0.00
2015,08,29,00,04,0.00
2015,08,29,00,05,0.00
2015,08,29,00,06,0.80
2015,08,29,00,07,2.50
2015,08,29,00,08,0.10
2015,08,29,00,09,0.10
2015,08,29,00,10,0.10
2015,08,29,00,11,0.00
2015,08,29,00,12,0.70
2015,08,29,00,13,0.80
2015,08,29,00,14,0.10
2015,08,29,00,15,0.10
2015,08,29,00,16,0.00
2015,08,29,00,17,0.10
2015,08,29,00,18,6.20
2015,08,29,00,19,5.80
2015,08,29,00,20,4.80
2015,08,29,00,21,0.20
2015,08,29,00,22,0.00
2015,08,29,00,23,0.00
2015,08,29,00,24,0.00
2015,08,29,00,25,0.00
2015,08,29,00,26,0.00
2015,08,29,00,27,0.10
2015,08,29,00,28,0.00
2015,08,29,00,29,0.00
2015,08,29,00,30,0.00
2015,08,29,00,31,0.00
2015,08,29,00,32,0.20
2015,08,29,00,33,3.70
2015,08,29,00,34,5.40
2015,08,29,00,35,3.20
2015,08,29,00,36,0.00
2015,08,29,00,37,0.90
2015,08,29,00,38,0.00
2015,08,29,00,39,1.60
2015,08,29,00,40,0.00
2015,08,29,00,41,0.10
2015,08,29,00,42,0.10
2015,08,29,00,43,0.00
2015,08,29,00,44,0.00
2015,08,29,00,45,0.00
2015,08,29,00,46,0.00
2015,08,29,00,47,0.00
2015,08,29,00,48,0.10
2015,08,29,00,49,0.00
2015,08,29,00,50,0.00
2015,08,29,00,51,3.30
2015,08,29,00,52,3.30
2015,08,29,00,53,1.40
2015,08,29,00,54,2.00
2015,08,29,00,55,0.80
2015,08,29,00,56,0.50
2015,08,29,00,57,0.00
2015,08,29,00,58,0.80
2015,08,29,00,59,0.00
2015,08,29,01,00,1.00
2015,08,29,01,01,4.30
2015,08,29,01,02,4.60
2015,08,29,01,03,2.00
2015,08,29,01,04,0.00
2015,08,29,01,05,0.10
2015,08,29,01,06,1.20
2015,08,29,01,07,3.60
2015,08,29,01,08,0.10
2015,08,29,01,09,0.00
2015,08,29,01,10,0.10
2015,08,29,01,11,0.00
2015,08,29,01,12,0.10
2015,08,29,01,13,0.00
2015,08,29,01,14,0.00
2015,08,29,01,15,0.80
2015,08,29,01,16,0.90
2015,08,29,01,17,0.10
2015,08,29,01,18,1.00
2015,08,29,01,19,0.10
2015,08,29,01,20,3.00
2015,08,29,01,21,3.90
2015,08,29,01,22,2.50
2015,08,29,01,23,1.80
2015,08,29,01,24,0.10
2015,08,29,01,25,0.00
2015,08,29,01,26,0.00
2015,08,29,01,27,1.30
2015,08,29,01,28,4.70
2015,08,29,01,29,1.80
2015,08,29,01,30,0.00
2015,08,29,01,31,1.30
2015,08,29,01,32,3.60
2015,08,29,01,33,3.10
2015,08,29,01,34,4.80
2015,08,29,01,35,2.00
2015,08,29,01,36,3.60
2015,08,29,01,37,2.00
2015,08,29,01,38,2.50
2015,08,29,01,39,2.00
2015,08,29,01,40,1.80
2015,08,29,01,41,2.70
2015,08,29,01,42,3.10
2015,08,29,01,43,4.60
2015,08,29,01,44,3.90
2015,08,29,01,45,2.80
2015,08,29,01,46,0.10
2015,08,29,01,47,0.10
2015,08,29,01,48,0.10
2015,08,29,01,49,0.00
2015,08,29,01,50,0.00
2015,08,29,01,51,0.00
2015,08,29,01,52,0.00
2015,08,29,01,53,0.50
2015,08,29,01,54,0.70
2015,08,29,01,55,0.00
2015,08,29,01,56,0.00
2015,08,29,01,57,0.00
2015,08,29,01,58,0.00
2015,08,29,01,59,0.00
2015,08,29,02,00,0.00
2015,08,29,02,01,0.00
2015,08,29,02,02,0.50
2015,08,29,02,03,0.00
2015,08,29,02,04,0.00
2015,08,29,02,05,0.00
2015,08,29,02,06,0.00
2015,08,29,02,07,0.00
2015,08,29,02,08,0.00
2015,08,29,02,09,0.00
2015,08,29,02,10,0.00
2015,08,29,02,11,0.00
2015,08,29,02,12,2.60
2015,08,29,02,13,4.60
2015,08,29,02,14,5.30
2015,08,29,02,15,2.10
2015,08,29,02,16,2.10
2015,08,29,02,17,2.00
2015,08,29,02,18,3.10
2015,08,29,02,19,3.90
2015,08,29,02,20,1.10
2015,08,29,02,21,0.00
2015,08,29,02,22,0.00
2015,08,29,02,23,0.00
2015,08,29,02,24,0.00
2015,08,29,02,25,0.00
2015,08,29,02,26,0.80
2015,08,29,02,27,3.30
2015,08,29,02,28,1.60
2015,08,29,02,29,0.90
2015,08,29,02,30,0.30
2015,08,29,02,31,3.80
2015,08,29,02,32,4.00
2015,08,29,02,33,6.00
2015,08,29,02,34,3.90
2015,08,29,02,35,3.00
2015,08,29,02,36,3.90
2015,08,29,02,37,0.10
2015,08,29,02,38,2.00
2015,08,29,02,39,4.80
2015,08,29,02,40,4.40
2015,08,29,02,41,4.30
2015,08,29,02,42,5.80
2015,08,29,02,43,2.50
2015,08,29,02,44,1.00
2015,08,29,02,45,4.40
2015,08,29,02,46,4.20
2015,08,29,02,47,3.50
2015,08,29,02,48,4.00
2015,08,29,02,49,3.60
2015,08,29,02,50,2.70
2015,08,29,02,51,6.40
2015,08,29,02,52,5.90
2015,08,29,02,53,3.80
2015,08,29,02,54,3.40
2015,08,29,02,55,5.20
2015,08,29,02,56,5.00
2015,08,29,02,57,4.10
2015,08,29,02,58,3.20
2015,08,29,02,59,1.70
2015,08,29,03,00,2.40
2015,08,29,03,01,2.10
2015,08,29,03,02,0.00
2015,08,29,03,03,1.30
2015,08,29,03,04,4.30
2015,08,29,03,05,5.30
2015,08,29,03,06,3.70
2015,08,29,03,07,3.30
2015,08,29,03,08,2.40
2015,08,29,03,09,3.60
2015,08,29,03,10,1.20
2015,08,29,03,11,0.30
2015,08,29,03,12,0.00
2015,08,29,03,13,1.80
2015,08,29,03,14,0.60
2015,08,29,03,15,0.00
2015,08,29,03,16,0.20
2015,08,29,03,17,1.60
2015,08,29,03,18,3.60
2015,08,29,03,19,3.00
2015,08,29,03,20,2.10
2015,08,29,03,21,3.50
2015,08,29,03,22,0.90
2015,08,29,03,23,5.60
2015,08,29,03,24,4.10
2015,08,29,03,25,0.80
2015,08,29,03,26,2.40
2015,08,29,03,27,1.40
2015,08,29,03,28,4.20
2015,08,29,03,29,0.00
2015,08,29,03,30,0.10
2015,08,29,03,31,0.00
2015,08,29,03,32,0.00
2015,08,29,03,33,0.50
2015,08,29,03,34,1.70
2015,08,29,03,35,2.30
2015,08,29,03,36,1.80
2015,08,29,03,37,5.80
2015,08,29,03,38,4.70
2015,08,29,03,39,3.40
2015,08,29,03,40,4.70
2015,08,29,03,41,4.40
2015,08,29,03,42,5.20
2015,08,29,03,43,6.40
2015,08,29,03,44,5.30
2015,08,29,03,45,4.70
2015,08,29,03,46,5.30
2015,08,29,03,47,5.10
2015,08,29,03,48,4.50
2015,08,29,03,49,2.40
2015,08,29,03,50,7.00
2015,08,29,03,51,7.80
2015,08,29,03,52,5.00
2015,08,29,03,53,1.90
2015,08,29,03,54,5.80
2015,08,29,03,55,2.40
2015,08,29,03,56,1.30
2015,08,29,03,57,0.80
2015,08,29,03,58,0.00
2015,08,29,03,59,0.00
2015,08,29,04,00,2.50
2015,08,29,04,01,0.80
2015,08,29,04,02,1.90
2015,08,29,04,03,2.00
2015,08,29,04,04,1.90
2015,08,29,04,05,3.00
2015,08,29,04,06,2.70
2015,08,29,04,07,3.00
2015,08,29,04,08,5.70
2015,08,29,04,09,2.80
2015,08,29,04,10,2.60
2015,08,29,04,11,4.80
2015,08,29,04,12,2.70
2015,08,29,04,13,6.90
2015,08,29,04,14,5.60
2015,08,29,04,15,7.90
2015,08,29,04,16,4.70
2015,08,29,04,17,3.00
2015,08,29,04,18,5.40
2015,08,29,04,19,5.80
2015,08,29,04,20,6.50
2015,08,29,04,21,3.10
2015,08,29,04,22,6.20
2015,08,29,04,23,8.90
2015,08,29,04,24,7.10
2015,08,29,04,25,4.20
2015,08,29,04,26,6.30
2015,08,29,04,27,5.90
2015,08,29,04,28,5.40
2015,08,29,04,29,5.40
2015,08,29,04,30,3.10
2015,08,29,04,31,4.40
2015,08,29,04,32,6.10
2015,08,29,04,33,6.90
2015,08,29,04,34,6.60
2015,08,29,04,35,6.50
2015,08,29,04,36,4.10
2015,08,29,04,37,5.30
2015,08,29,04,38,4.50
2015,08,29,04,39,9.40
2015,08,29,04,40,9.60
2015,08,29,04,41,9.10
2015,08,29,04,42,9.90
2015,08,29,04,43,7.60
2015,08,29,04,44,7.80
2015,08,29,04,45,6.90
2015,08,29,04,46,5.00
2015,08,29,04,47,0.10
2015,08,29,04,48,2.70
2015,08,29,04,49,0.10
2015,08,29,04,50,0.00
2015,08,29,04,51,0.00
2015,08,29,04,52,0.00
2015,08,29,04,53,0.00
2015,08,29,04,54,0.40
2015,08,29,04,55,1.50
2015,08,29,04,56,4.50
2015,08,29,04,57,5.30
2015,08,29,04,58,4.80
2015,08,29,04,59,6.20
2015,08,29,05,00,5.80
2015,08,29,05,01,5.80
2015,08,29,05,02,7.50
2015,08,29,05,03,4.80
2015,08,29,05,04,3.60
2015,08,29,05,05,3.40
2015,08,29,05,06,4.10
2015,08,29,05,07,3.50
2015,08,29,05,08,0.00
2015,08,29,05,09,0.00
2015,08,29,05,10,0.00
2015,08,29,05,11,0.00
2015,08,29,05,12,0.90
2015,08,29,05,13,0.10
2015,08,29,05,14,0.00
2015,08,29,05,15,0.10
2015,08,29,05,16,3.30
2015,08,29,05,17,0.00
2015,08,29,05,18,0.90
2015,08,29,05,19,3.40
2015,08,29,05,20,4.30
2015,08,29,05,21,4.00
2015,08,29,05,22,6.00
2015,08,29,05,23,5.40
2015,08,29,05,24,2.60
2015,08,29,05,25,3.10
2015,08,29,05,26,3.20
2015,08,29,05,27,2.10
2015,08,29,05,28,0.10
2015,08,29,05,29,0.00
2015,08,29,05,30,0.00
2015,08,29,05,31,0.00
2015,08,29,05,32,0.00
2015,08,29,05,33,0.00
2015,08,29,05,34,0.00
2015,08,29,05,35,0.00
2015,08,29,05,36,0.00
2015,08,29,05,37,5.50
2015,08,29,05,38,10.70
2015,08,29,05,39,15.80
2015,08,29,05,40,14.00
2015,08,29,05,41,28.90
2015,08,29,05,42,22.50
2015,08,29,05,43,25.30
2015,08,29,05,44,15.40
2015,08,29,05,45,13.90
2015,08,29,05,46,16.20
2015,08,29,05,47,19.50
2015,08,29,05,48,11.60
2015,08,29,05,49,17.20
2015,08,29,05,50,13.00
2015,08,29,05,51,23.40
2015,08,29,05,52,19.70
2015,08,29,05,53,12.80
2015,08,29,05,54,12.00
2015,08,29,05,55,6.60
2015,08,29,05,56,5.70
2015,08,29,05,57,2.60
2015,08,29,05,58,4.90
2015,08,29,05,59,5.90
2015,08,29,06,00,6.30
2015,08,29,06,01,4.70
2015,08,29,06,02,0.40
2015,08,29,06,03,2.00
2015,08,29,06,04,2.90
2015,08,29,06,05,3.40
2015,08,29,06,06,2.70
2015,08,29,06,07,4.70
2015,08,29,06,08,3.20
2015,08,29,06,09,2.60
2015,08,29,06,10,0.20
2015,08,29,06,11,0.10
2015,08,29,06,12,4.20
2015,08,29,06,13,1.00
2015,08,29,06,14,0.00
2015,08,29,06,15,0.40
2015,08,29,06,16,2.00
2015,08,29,06,17,0.10
2015,08,29,06,18,0.00
2015,08,29,06,19,1.60
2015,08,29,06,20,0.20
2015,08,29,06,21,0.90
2015,08,29,06,22,0.90
2015,08,29,06,23,1.20
2015,08,29,06,24,1.50
2015,08,29,06,25,5.10
2015,08,29,06,26,1.80
2015,08,29,06,27,0.00
2015,08,29,06,28,0.10
2015,08,29,06,29,0.10
2015,08,29,06,30,1.30
2015,08,29,06,31,4.00
2015,08,29,06,32,5.50
2015,08,29,06,33,6.40
2015,08,29,06,34,6.10
2015,08,29,06,35,5.70
2015,08,29,06,36,3.20
2015,08,29,06,37,3.70
2015,08,29,06,38,4.00
2015,08,29,06,39,2.50
2015,08,29,06,40,7.20
2015,08,29,06,41,9.40
2015,08,29,06,42,9.40
2015,08,29,06,43,9.00
2015,08,29,06,44,7.50
2015,08,29,06,45,9.70
2015,08,29,06,46,8.10
2015,08,29,06,47,8.50
2015,08,29,06,48,8.10
2015,08,29,06,49,7.40
2015,08,29,06,50,8.30
2015,08,29,06,51,8.00
2015,08,29,06,52,7.90
2015,08,29,06,53,7.60
2015,08,29,06,54,4.50
2015,08,29,06,55,4.00
2015,08,29,06,56,2.10
2015,08,29,06,57,4.30
2015,08,29,06,58,3.40
2015,08,29,06,59,0.60
2015,08,29,07,00,3.00
2015,08,29,07,01,4.90
2015,08,29,07,02,4.50
2015,08,29,07,03,5.20
2015,08,29,07,04,1.20
2015,08,29,07,05,3.60
2015,08,29,07,06,1.70
2015,08,29,07,07,5.80
2015,08,29,07,08,0.40
2015,08,29,07,09,1.00
2015,08,29,07,10,1.40
2015,08,29,07,11,3.20
2015,08,29,07,12,2.50
2015,08,29,07,13,0.10
2015,08,29,07,14,0.00
2015,08,29,07,15,0.00
2015,08,29,07,16,0.00
2015,08,29,07,17,0.30
2015,08,29,07,18,3.50
2015,08,29,07,19,0.00
2015,08,29,07,20,0.70
2015,08,29,07,21,3.10
2015,08,29,07,22,0.80
2015,08,29,07,23,0.00
2015,08,29,07,24,0.00
2015,08,29,07,25,0.00
2015,08,29,07,26,0.00
2015,08,29,07,27,0.00
2015,08,29,07,28,0.30
2015,08,29,07,29,1.30
2015,08,29,07,30,0.80
2015,08,29,07,31,0.90
2015,08,29,07,32,2.10
2015,08,29,07,33,2.80
2015,08,29,07,34,1.40
2015,08,29,07,35,0.00
2015,08,29,07,36,0.00
2015,08,29,07,37,0.00
2015,08,29,07,38,0.00
2015,08,29,07,39,0.00
2015,08,29,07,40,0.00
2015,08,29,07,41,1.50
2015,08,29,07,42,0.00
2015,08,29,07,43,0.10
2015,08,29,07,44,0.00
2015,08,29,07,45,0.00
2015,08,29,07,46,0.00
2015,08,29,07,47,0.00
2015,08,29,07,48,0.10
2015,08,29,07,49,0.00
2015,08,29,07,50,0.00
2015,08,29,07,51,0.30
2015,08,29,07,52,1.40
2015,08,29,07,53,0.00
2015,08,29,07,54,0.00
2015,08,29,07,55,0.00
2015,08,29,07,56,0.00
2015,08,29,07,57,0.00
2015,08,29,07,58,0.00
2015,08,29,07,59,0.00
2015,08,29,08,00,0.00
2015,08,29,08,01,0.00
2015,08,29,08,02,0.00
2015,08,29,08,03,2.80
2015,08,29,08,04,1.40
2015,08,29,08,05,2.20
2015,08,29,08,06,0.30
2015,08,29,08,07,0.00
2015,08,29,08,08,1.00
2015,08,29,08,09,1.30
2015,08,29,08,10,0.00
2015,08,29,08,11,0.00
2015,08,29,08,12,0.00
2015,08,29,08,13,0.00
2015,08,29,08,14,0.00
2015,08,29,08,15,0.00
2015,08,29,08,16,0.00
2015,08,29,08,17,1.40
2015,08,29,08,18,2.40
2015,08,29,08,19,0.10
2015,08,29,08,20,0.10
2015,08,29,08,21,0.00
2015,08,29,08,22,0.20
2015,08,29,08,23,2.40
2015,08,29,08,24,0.00
2015,08,29,08,25,0.00
2015,08,29,08,26,0.10
2015,08,29,08,27,2.40
2015,08,29,08,28,0.00
2015,08,29,08,29,0.10
2015,08,29,08,30,0.00
2015,08,29,08,31,0.10
2015,08,29,08,32,1.10
2015,08,29,08,33,0.00
2015,08,29,08,34,0.00
2015,08,29,08,35,0.00
2015,08,29,08,36,0.20
2015,08,29,08,37,3.60
2015,08,29,08,38,4.70
2015,08,29,08,39,3.30
2015,08,29,08,40,0.80
2015,08,29,08,41,0.00
2015,08,29,08,42,0.00
2015,08,29,08,43,0.00
2015,08,29,08,44,0.00
2015,08,29,08,45,0.00
2015,08,29,08,46,1.40
2015,08,29,08,47,0.20
2015,08,29,08,48,1.90
2015,08,29,08,49,1.00
2015,08,29,08,50,0.00
2015,08,29,08,51,1.00
2015,08,29,08,52,8.70
2015,08,29,08,53,6.40
2015,08,29,08,54,4.70
2015,08,29,08,55,2.10
2015,08,29,08,56,2.00
2015,08,29,08,57,3.10
2015,08,29,08,58,0.90
2015,08,29,08,59,0.10
2015,08,29,09,00,0.00
2015,08,29,09,01,0.50
2015,08,29,09,02,1.90
2015,08,29,09,03,2.10
2015,08,29,09,04,0.10
2015,08,29,09,05,3.50
2015,08,29,09,06,0.50
2015,08,29,09,07,2.90
2015,08,29,09,08,1.60
2015,08,29,09,09,1.40
2015,08,29,09,10,1.70
2015,08,29,09,11,3.10
2015,08,29,09,12,1.80
2015,08,29,09,13,3.00
2015,08,29,09,14,0.00
2015,08,29,09,15,0.30
2015,08,29,09,16,5.70
2015,08,29,09,17,4.40
2015,08,29,09,18,3.30
2015,08,29,09,19,2.50
2015,08,29,09,20,2.10
2015,08,29,09,21,0.90
2015,08,29,09,22,0.00
2015,08,29,09,23,0.00
2015,08,29,09,24,2.30
2015,08,29,09,25,1.20
2015,08,29,09,26,1.10
2015,08,29,09,27,0.40
2015,08,29,09,28,3.50
2015,08,29,09,29,3.80
2015,08,29,09,30,2.20
2015,08,29,09,31,2.90
2015,08,29,09,32,3.10
2015,08,29,09,33,0.20
2015,08,29,09,34,0.60
2015,08,29,09,35,4.10
2015,08,29,09,36,6.30
2015,08,29,09,37,6.70
2015,08,29,09,38,1.60
2015,08,29,09,39,5.20
2015,08,29,09,40,4.10
2015,08,29,09,41,6.50
2015,08,29,09,42,8.60
2015,08,29,09,43,6.50
2015,08,29,09,44,6.10
2015,08,29,09,45,9.50
2015,08,29,09,46,6.60
2015,08,29,09,47,6.10
2015,08,29,09,48,8.40
2015,08,29,09,49,9.50
2015,08,29,09,50,8.50
2015,08,29,09,51,7.40
2015,08,29,09,52,8.00
2015,08,29,09,53,10.30
2015,08,29,09,54,11.70
2015,08,29,09,55,9.30
2015,08,29,09,56,15.20
2015,08,29,09,57,11.40
2015,08,29,09,58,6.40
2015,08,29,09,59,5.00
2015,08,29,10,00,0.00
2015,08,29,10,01,2.50
2015,08,29,10,02,1.00
2015,08,29,10,03,0.00
2015,08,29,10,04,0.00
2015,08,29,10,05,2.70
2015,08,29,10,06,2.80
2015,08,29,10,07,3.90
2015,08,29,10,08,12.80
2015,08,29,10,09,7.70
2015,08,29,10,10,6.30
2015,08,29,10,11,3.60
2015,08,29,10,12,5.60
2015,08,29,10,13,5.90
2015,08,29,10,14,0.00
2015,08,29,10,15,0.10
2015,08,29,10,16,6.20
2015,08,29,10,17,6.80
2015,08,29,10,18,4.30
2015,08,29,10,19,0.50
2015,08,29,10,20,2.50
2015,08,29,10,21,0.70
2015,08,29,10,22,2.40
2015,08,29,10,23,7.00
2015,08,29,10,24,6.50
2015,08,29,10,25,1.80
2015,08,29,10,26,4.00
2015,08,29,10,27,2.60
2015,08,29,10,28,4.10
2015,08,29,10,29,3.30
2015,08,29,10,30,1.00
2015,08,29,10,31,1.30
2015,08,29,10,32,0.00
2015,08,29,10,33,0.10
2015,08,29,10,34,0.00
2015,08,29,10,35,0.80
2015,08,29,10,36,5.30
2015,08,29,10,37,0.70
2015,08,29,10,38,0.00
2015,08,29,10,39,1.00
2015,08,29,10,40,0.50
2015,08,29,10,41,13.90
2015,08,29,10,42,9.60
2015,08,29,10,43,5.30
2015,08,29,10,44,3.90
2015,08,29,10,45,5.40
2015,08,29,10,46,8.90
2015,08,29,10,47,10.90
2015,08,29,10,48,9.70
2015,08,29,10,49,1.90
2015,08,29,10,50,0.00
2015,08,29,10,51,0.10
2015,08,29,10,52,2.50
2015,08,29,10,53,3.60
2015,08,29,10,54,1.50
2015,08,29,10,55,2.60
2015,08,29,10,56,0.10
2015,08,29,10,57,0.10
2015,08,29,10,58,2.50
2015,08,29,10,59,1.20
2015,08,29,11,00,5.80
2015,08,29,11,01,1.70
2015,08,29,11,02,5.60
2015,08,29,11,03,6.90
2015,08,29,11,04,7.90
2015,08,29,11,05,1.20
2015,08,29,11,06,4.80
2015,08,29,11,07,4.00
2015,08,29,11,08,0.30
2015,08,29,11,09,1.10
2015,08,29,11,10,3.10
2015,08,29,11,11,9.40
2015,08,29,11,12,8.10
2015,08,29,11,13,3.80
2015,08,29,11,14,0.30
2015,08,29,11,15,3.60
2015,08,29,11,16,5.70
2015,08,29,11,17,7.30
2015,08,29,11,18,0.50
2015,08,29,11,19,8.60
2015,08,29,11,20,16.20
2015,08,29,11,21,12.70
2015,08,29,11,22,11.40
2015,08,29,11,23,10.50
2015,08,29,11,24,6.10
2015,08,29,11,25,0.80
2015,08,29,11,26,5.60
2015,08,29,11,27,1.90
2015,08,29,11,28,2.70
2015,08,29,11,29,6.90
2015,08,29,11,30,11.00
2015,08,29,11,31,13.30
2015,08,29,11,32,14.80
2015,08,29,11,33,15.00
2015,08,29,11,34,20.10
2015,08,29,11,35,18.70
2015,08,29,11,36,18.70
2015,08,29,11,37,17.50
2015,08,29,11,38,13.80
2015,08,29,11,39,8.00
2015,08,29,11,40,9.70
2015,08,29,11,41,10.20
2015,08,29,11,42,3.40
2015,08,29,11,43,4.60
2015,08,29,11,44,5.40
2015,08,29,11,45,7.50
2015,08,29,11,46,5.80
2015,08,29,11,47,10.10
2015,08,29,11,48,11.20
2015,08,29,11,49,10.30
2015,08,29,11,50,10.50
2015,08,29,11,51,5.20
2015,08,29,11,52,4.10
2015,08,29,11,53,4.40
2015,08,29,11,54,0.00
2015,08,29,11,55,0.00
2015,08,29,11,56,0.00
2015,08,29,11,57,0.00
2015,08,29,11,58,0.00
2015,08,29,11,59,0.00
2015,08,29,12,00,2.80
2015,08,29,12,01,0.40
2015,08,29,12,02,0.10
2015,08,29,12,03,1.40
2015,08,29,12,04,3.90
2015,08,29,12,05,0.20
2015,08,29,12,06,1.60
2015,08,29,12,07,5.20
2015,08,29,12,08,5.80
2015,08,29,12,09,3.70
2015,08,29,12,10,5.80
2015,08,29,12,11,12.60
2015,08,29,12,12,9.80
2015,08,29,12,13,16.50
2015,08,29,12,14,12.20
2015,08,29,12,15,10.30
2015,08,29,12,16,9.70
2015,08,29,12,17,7.60
2015,08,29,12,18,5.40
2015,08,29,12,19,2.00
2015,08,29,12,20,1.00
2015,08,29,12,21,10.50
2015,08,29,12,22,7.00
2015,08,29,12,23,5.60
2015,08,29,12,24,3.60
2015,08,29,12,25,0.50
2015,08,29,12,26,14.20
2015,08,29,12,27,9.50
2015,08,29,12,28,3.00
2015,08,29,12,29,0.50
2015,08,29,12,30,5.60
2015,08,29,12,31,9.50
2015,08,29,12,32,18.60
2015,08,29,12,33,8.40
2015,08,29,12,34,6.70
2015,08,29,12,35,11.80
2015,08,29,12,36,7.60
2015,08,29,12,37,13.00
2015,08,29,12,38,10.60
2015,08,29,12,39,14.00
2015,08,29,12,40,9.70
2015,08,29,12,41,7.80
2015,08,29,12,42,4.90
2015,08,29,12,43,7.90
2015,08,29,12,44,10.30
2015,08,29,12,45,16.40
2015,08,29,12,46,11.40
2015,08,29,12,47,12.80
2015,08,29,12,48,13.60
2015,08,29,12,49,11.80
2015,08,29,12,50,11.60
2015,08,29,12,51,5.10
2015,08,29,12,52,6.70
2015,08,29,12,53,7.20
2015,08,29,12,54,7.40
2015,08,29,12,55,13.70
2015,08,29,12,56,17.10
2015,08,29,12,57,20.60
2015,08,29,12,58,13.30
2015,08,29,12,59,18.80
2015,08,29,13,00,18.40
2015,08,29,13,01,14.00
2015,08,29,13,02,16.70
2015,08,29,13,03,14.00
2015,08,29,13,04,14.10
2015,08,29,13,05,17.40
2015,08,29,13,06,13.70
2015,08,29,13,07,15.30
2015,08,29,13,08,21.30
2015,08,29,13,09,15.10
2015,08,29,13,10,16.70
2015,08,29,13,11,19.20
2015,08,29,13,12,16.40
2015,08,29,13,13,17.40
2015,08,29,13,14,20.00
2015,08,29,13,15,17.10
2015,08,29,13,16,17.40
2015,08,29,13,17,18.80
2015,08,29,13,18,23.00
2015,08,29,13,19,24.20
2015,08,29,13,20,18.90
2015,08,29,13,21,11.40
2015,08,29,13,22,18.30
2015,08,29,13,23,16.40
2015,08,29,13,24,11.90
2015,08,29,13,25,9.80
2015,08,29,13,26,14.60
2015,08,29,13,27,11.70
2015,08,29,13,28,17.00
2015,08,29,13,29,15.20
2015,08,29,13,30,12.80
2015,08,29,13,31,11.40
2015,08,29,13,32,12.00
2015,08,29,13,33,15.00
2015,08,29,13,34,16.40
2015,08,29,13,35,14.10
2015,08,29,13,36,10.90
2015,08,29,13,37,13.30
2015,08,29,13,38,19.80
2015,08,29,13,39,10.20
2015,08,29,13,40,16.70
2015,08,29,13,41,16.70
2015,08,29,13,42,17.80
2015,08,29,13,43,18.60
2015,08,29,13,44,18.30
2015,08,29,13,45,15.90
2015,08,29,13,46,26.40
2015,08,29,13,47,22.50
2015,08,29,13,48,20.50
2015,08,29,13,49,19.10
2015,08,29,13,50,16.60
2015,08,29,13,51,17.40
2015,08,29,13,52,18.50
2015,08,29,13,53,24.80
2015,08,29,13,54,34.50
2015,08,29,13,55,24.80
2015,08,29,13,56,29.30
2015,08,29,13,57,25.20
2015,08,29,13,58,29.10
2015,08,29,13,59,30.30
2015,08,29,14,00,29.50
2015,08,29,14,01,25.60
2015,08,29,14,02,29.90
2015,08,29,14,03,16.70
2015,08,29,14,04,21.00
2015,08,29,14,05,25.20
2015,08,29,14,06,25.20
2015,08,29,14,07,28.90
2015,08,29,14,08,32.90
2015,08,29,14,09,31.80
2015,08,29,14,10,39.10
2015,08,29,14,11,28.00
2015,08,29,14,12,34.30
2015,08,29,14,13,43.80
2015,08,29,14,14,37.80
2015,08,29,14,15,25.80
2015,08,29,14,16,33.10
2015,08,29,14,17,39.30
2015,08,29,14,18,23.30
2015,08,29,14,19,28.30
2015,08,29,14,20,35.60
2015,08,29,14,21,37.70
2015,08,29,14,22,38.80
2015,08,29,14,23,34.20
2015,08,29,14,24,21.50
2015,08,29,14,25,23.50
2015,08,29,14,26,34.20
2015,08,29,14,27,29.30
2015,08,29,14,28,25.40
2015,08,29,14,29,31.40
2015,08,29,14,30,33.30
2015,08,29,14,31,36.60
2015,08,29,14,32,23.80
2015,08,29,14,33,35.20
2015,08,29,14,34,24.60
2015,08,29,14,35,31.20
2015,08,29,14,36,30.40
2015,08,29,14,37,31.90
2015,08,29,14,38,28.50
2015,08,29,14,39,27.80
2015,08,29,14,40,25.30
2015,08,29,14,41,27.70
2015,08,29,14,42,25.50
2015,08,29,14,43,33.70
2015,08,29,14,44,26.90
2015,08,29,14,45,32.60
2015,08,29,14,46,28.10
2015,08,29,14,47,26.90
2015,08,29,14,48,29.50
2015,08,29,14,49,24.20
2015,08,29,14,50,28.80
2015,08,29,14,51,37.30
2015,08,29,14,52,25.80
2015,08,29,14,53,31.10
2015,08,29,14,54,38.10
2015,08,29,14,55,26.50
2015,08,29,14,56,23.70
2015,08,29,14,57,27.00
2015,08,29,14,58,28.90
2015,08,29,14,59,37.10
2015,08,29,15,00,28.60
2015,08,29,15,01,33.20
2015,08,29,15,02,29.60
2015,08,29,15,03,27.80
2015,08,29,15,04,31.90
2015,08,29,15,05,21.30
2015,08,29,15,06,21.60
2015,08,29,15,07,27.20
2015,08,29,15,08,27.50
2015,08,29,15,09,25.10
2015,08,29,15,10,30.50
2015,08,29,15,11,23.90
2015,08,29,15,12,22.60
2015,08,29,15,13,26.40
2015,08,29,15,14,23.80
2015,08,29,15,15,26.70
2015,08,29,15,16,23.00
2015,08,29,15,17,27.30
2015,08,29,15,18,20.00
2015,08,29,15,19,20.60
2015,08,29,15,20,17.90
2015,08,29,15,21,17.30
2015,08,29,15,22,19.40
2015,08,29,15,23,21.40
2015,08,29,15,24,18.30
2015,08,29,15,25,15.20
2015,08,29,15,26,15.50
2015,08,29,15,27,18.90
2015,08,29,15,28,20.60
2015,08,29,15,29,18.80
2015,08,29,15,30,19.20
2015,08,29,15,31,19.50
2015,08,29,15,32,12.50
2015,08,29,15,33,10.30
2015,08,29,15,34,13.00
2015,08,29,15,35,16.90
2015,08,29,15,36,10.10
2015,08,29,15,37,19.50
2015,08,29,15,38,20.60
2015,08,29,15,39,15.10
2015,08,29,15,40,19.00
2015,08,29,15,41,16.40
2015,08,29,15,42,11.10
2015,08,29,15,43,13.80
2015,08,29,15,44,17.50
2015,08,29,15,45,16.20
2015,08,29,15,46,26.90
2015,08,29,15,47,20.00
2015,08,29,15,48,19.30
2015,08,29,15,49,17.20
2015,08,29,15,50,15.10
2015,08,29,15,51,17.40
2015,08,29,15,52,22.10
2015,08,29,15,53,13.10
2015,08,29,15,54,19.50
2015,08,29,15,55,16.10
2015,08,29,15,56,13.30
2015,08,29,15,57,12.90
2015,08,29,15,58,13.20
2015,08,29,15,59,16.90
2015,08,29,16,00,16.90
2015,08,29,16,01,17.90
2015,08,29,16,02,15.90
2015,08,29,16,03,15.70
2015,08,29,16,04,16.50
2015,08,29,16,05,18.70
2015,08,29,16,06,18.30
2015,08,29,16,07,17.10
2015,08,29,16,08,13.60
2015,08,29,16,09,15.40
2015,08,29,16,10,14.60
2015,08,29,16,11,17.10
2015,08,29,16,12,20.00
2015,08,29,16,13,15.80
2015,08,29,16,14,14.50
2015,08,29,16,15,15.00
2015,08,29,16,16,14.20
2015,08,29,16,17,14.20
2015,08,29,16,18,16.80
2015,08,29,16,19,12.40
2015,08,29,16,20,12.60
2015,08,29,16,21,11.30
2015,08,29,16,22,6.10
2015,08,29,16,23,7.00
2015,08,29,16,24,3.50
2015,08,29,16,25,12.40
2015,08,29,16,26,10.70
2015,08,29,16,27,12.40
2015,08,29,16,28,10.30
2015,08,29,16,29,8.30
2015,08,29,16,30,9.80
2015,08,29,16,31,10.90
2015,08,29,16,32,12.60
2015,08,29,16,33,15.40
2015,08,29,16,34,11.40
2015,08,29,16,35,10.20
2015,08,29,16,36,10.10
2015,08,29,16,37,7.30
2015,08,29,16,38,11.50
2015,08,29,16,39,8.80
2015,08,29,16,40,5.60
2015,08,29,16,41,4.80
2015,08,29,16,42,6.10
2015,08,29,16,43,9.60
2015,08,29,16,44,6.70
2015,08,29,16,45,1.90
2015,08,29,16,46,0.60
2015,08,29,16,47,0.90
2015,08,29,16,48,8.20
2015,08,29,16,49,6.90
2015,08,29,16,50,4.70
2015,08,29,16,51,6.20
2015,08,29,16,52,2.90
2015,08,29,16,53,2.40
2015,08,29,16,54,0.00
2015,08,29,16,55,5.00
2015,08,29,16,56,6.80
2015,08,29,16,57,5.60
2015,08,29,16,58,0.00
2015,08,29,16,59,0.00
2015,08,29,17,00,0.10
2015,08,29,17,01,0.00
2015,08,29,17,02,0.00
2015,08,29,17,03,0.00
2015,08,29,17,04,0.00
2015,08,29,17,05,0.10
2015,08,29,17,06,0.20
2015,08,29,17,07,0.00
2015,08,29,17,08,0.00
2015,08,29,17,09,0.00
2015,08,29,17,10,0.00
2015,08,29,17,11,0.00
2015,08,29,17,12,0.00
2015,08,29,17,13,0.00
2015,08,29,17,14,0.00
2015,08,29,17,15,0.00
2015,08,29,17,16,0.00
2015,08,29,17,17,0.00
2015,08,29,17,18,0.00
2015,08,29,17,19,0.00
2015,08,29,17,20,0.00
2015,08,29,17,21,0.00
2015,08,29,17,22,0.00
2015,08,29,17,23,0.00
2015,08,29,17,24,0.00
2015,08,29,17,25,0.00
2015,08,29,17,26,0.00
2015,08,29,17,27,0.00
2015,08,29,17,28,0.00
2015,08,29,17,29,0.00
2015,08,29,17,30,0.00
2015,08,29,17,31,0.00
2015,08,29,17,32,0.00
2015,08,29,17,33,4.70
2015,08,29,17,34,6.50
2015,08,29,17,35,4.00
2015,08,29,17,36,4.50
2015,08,29,17,37,7.60
2015,08,29,17,38,7.30
2015,08,29,17,39,8.10
2015,08,29,17,40,5.10
2015,08,29,17,41,8.10
2015,08,29,17,42,6.90
2015,08,29,17,43,4.10
2015,08,29,17,44,5.80
2015,08,29,17,45,7.80
2015,08,29,17,46,7.10
2015,08,29,17,47,9.90
2015,08,29,17,48,9.30
2015,08,29,17,49,8.50
2015,08,29,17,50,6.50
2015,08,29,17,51,9.70
2015,08,29,17,52,10.10
2015,08,29,17,53,10.80